sat.trackr.live / text

‹ back to catalog

STARLINK-30233

NORAD 57302 · 2023-096N

PAYLOAD ACTIVE UNKNOWN

§ Identity

Operator
Country
US
Launch date
2023-07-10
Launch site
AFETR
Launch vehicle
Mass (kg)
RCS (m²)

Purposes: comms

External: N2YO · Heavens-Above · Gunter

§ Orbital elements

Epoch: 2026-09-20T22:00:03.000096Z

Period
91.95 min
Inclination
42.9990°
Eccentricity
0.0001670
Mean motion
15.65997093 rev/d
Perigee alt
369.2 km
Apogee alt
371.5 km
Semi-major
6,748.5 km
B*
5.3905e-3
RAAN
193.7131°
Arg perigee
273.7410°
Mean anomaly
103.3631°
Rev number
589

§ Raw data

STARLINK-302331 57302U 23096N   26263.91670139  .00610740  00000+0  53905-2 0  99932 57302  42.9990 193.7131 0001670 273.7410 103.3631 15.65997093  5898

JSON: /api/v1/satellites/57302 · /tle

For live sub-satellite position, see the globe view (requires WebGL).

§ Visibility from observer

Set your observer location to see the next 7 days of passes ≥ 10°. The values pass through the URL so the page stays shareable.

No JS? Fill the form by hand. The geolocation button needs JavaScript.